GW2039 Weather Reports


Display with metric or nautical units.
time (UTC)temp
F
wind
direction
speed
MPH
gust
MPH
rain 1hr
in
rain 24hr
in
rain mn
in
humidity
%
barometer
mb
20260505201005 75 59 2.0 4.0 0.00 0.00 0.00 59 1009.4
20260505200902 75 64 2.0 4.0 0.00 0.00 0.00 59 1009.4
20260505200702 75 47 2.0 4.0 0.00 0.00 0.00 59 1009.4
20260505200602 75 61 2.0 5.0 0.00 0.00 0.00 59 1009.4
20260505200503 75 79 2.0 5.0 0.00 0.00 0.00 59 1009.4
20260505200401 75 74 1.0 5.0 0.00 0.00 0.00 58 1009.4
20260505200301 75 128 1.0 5.0 0.00 0.00 0.00 58 1009.4
20260505200100 75 126 2.0 5.0 0.00 0.00 0.00 58 1009.4
20260505200007 75 84 2.0 5.0 0.00 0.00 0.00 58 1009.4
20260505195902 75 92 2.0 5.0 0.00 0.00 0.00 58 1009.4
20260505195803 75 73 2.0 5.0 0.00 0.00 0.00 58 1009.4
20260505195703 75 94 2.0 6.0 0.00 0.00 0.00 58 1009.4
20260505195607 75 84 1.0 4.0 0.00 0.00 0.00 58 1009.4
20260505195504 75 36 1.0 4.0 0.00 0.00 0.00 58 1009.4
20260505195403 75 73 1.0 4.0 0.00 0.00 0.00 58 1009.4
20260505195305 75 74 1.0 4.0 0.00 0.00 0.00 58 1009.5
20260505195202 75 69 2.0 4.0 0.00 0.00 0.00 58 1009.4
20260505194903 75 68 2.0 6.0 0.00 0.00 0.00 58 1009.5
20260505194704 75 84 2.0 6.0 0.00 0.00 0.00 58 1009.4
20260505194603 75 99 2.0 6.0 0.00 0.00 0.00 58 1009.4
20260505194505 75 66 2.0 6.0 0.00 0.00 0.00 58 1009.5
20260505194403 75 109 2.0 6.0 0.00 0.00 0.00 58 1009.5
20260505194303 75 89 2.0 6.0 0.00 0.00 0.00 58 1009.5
20260505194103 75 61 3.0 6.0 0.00 0.00 0.00 58 1009.5
20260505194007 75 70 2.0 5.0 0.00 0.00 0.00 58 1009.5
20260505193904 75 77 2.0 6.0 0.00 0.00 0.00 58 1009.5
20260505193806 75 80 2.0 6.0 0.00 0.00 0.00 58 1009.5
20260505193603 75 95 1.0 6.0 0.00 0.00 0.00 58 1009.5
20260505193504 75 87 2.0 6.0 0.00 0.00 0.00 58 1009.5
20260505193404 75 107 2.0 6.0 0.00 0.00 0.00 58 1009.5
20260505193304 75 97 2.0 5.0 0.00 0.00 0.00 58 1009.5
20260505193204 76 80 2.0 5.0 0.00 0.00 0.00 58 1009.5
20260505193105 76 86 2.0 5.0 0.00 0.00 0.00 58 1009.6
20260505193005 76 93 2.0 5.0 0.00 0.00 0.00 58 1009.6
20260505192903 76 53 3.0 5.0 0.00 0.00 0.00 58 1009.6
20260505192805 76 101 3.0 5.0 0.00 0.00 0.00 57 1009.6
20260505192702 76 70 3.0 5.0 0.00 0.00 0.00 57 1009.6
20260505192604 76 67 3.0 5.0 0.00 0.00 0.00 57 1009.6
20260505192504 76 69 2.0 5.0 0.00 0.00 0.00 57 1009.6
20260505192402 76 59 2.0 5.0 0.00 0.00 0.00 57 1009.6
20260505192305 76 66 1.0 5.0 0.00 0.00 0.00 57 1009.6
20260505192203 76 53 1.0 5.0 0.00 0.00 0.00 57 1009.6
20260505192103 76 67 1.0 5.0 0.00 0.00 0.00 58 1009.7
20260505192007 76 125 1.0 5.0 0.00 0.00 0.00 58 1009.6
20260505191901 76 88 2.0 5.0 0.00 0.00 0.00 58 1009.6
20260505191802 76 85 2.0 5.0 0.00 0.00 0.00 58 1009.6
20260505191702 76 61 1.0 5.0 0.00 0.00 0.00 58 1009.6
20260505191505 76 73 3.0 5.0 0.00 0.00 0.00 58 1009.6
20260505191403 76 69 3.0 5.0 0.00 0.00 0.00 58 1009.6
20260505191202 76 55 2.0 4.0 0.00 0.00 0.00 57 1009.6
20260505191104 76 43 2.0 4.0 0.00 0.00 0.00 57 1009.6
20260505191006 76 64 1.0 3.0 0.00 0.00 0.00 57 1009.7
20260505190902 76 76 1.0 4.0 0.00 0.00 0.00 58 1009.7
20260505190802 76 76 1.0 6.0 0.00 0.00 0.00 58 1009.7
20260505190702 76 67 1.0 9.0 0.00 0.00 0.00 58 1009.7
20260505190505 76 70 2.0 9.0 0.00 0.00 0.00 58 1009.7
20260505190402 76 71 1.0 9.0 0.00 0.00 0.00 58 1009.7
20260505190204 76 83 2.0 9.0 0.00 0.00 0.00 58 1009.7
20260505190107 76 58 3.0 9.0 0.00 0.00 0.00 58 1009.7
20260505190008 76 86 4.0 9.0 0.00 0.00 0.00 57 1009.7
20260505185802 76 92 2.0 6.0 0.00 0.00 0.00 58 1009.8
20260505185703 76 57 2.0 5.0 0.00 0.00 0.00 58 1009.8
20260505185603 76 111 2.0 5.0 0.00 0.00 0.00 58 1009.8
20260505185504 76 90 3.0 5.0 0.00 0.00 0.00 57 1009.8
20260505185403 76 65 3.0 4.0 0.00 0.00 0.00 57 1009.8
20260505185304 76 57 2.0 3.0 0.00 0.00 0.00 57 1009.8
20260505185202 76 46 1.0 3.0 0.00 0.00 0.00 57 1009.8
20260505185103 76 59 1.0 3.0 0.00 0.00 0.00 57 1009.8
20260505185006 76 58 2.0 3.0 0.00 0.00 0.00 57 1009.8
20260505184902 76 60 2.0 3.0 0.00 0.00 0.00 57 1009.8
20260505184803 76 39 2.0 3.0 0.00 0.00 0.00 57 1009.8
20260505184603 76 55 1.0 2.0 0.00 0.00 0.00 57 1009.9
20260505184503 76 65 1.0 2.0 0.00 0.00 0.00 57 1009.8
20260505184400 76 46 0.0 1.0 0.00 0.00 0.00 57 1009.8
20260505184303 76 49 0.0 4.0 0.00 0.00 0.00 57 1009.9
20260505184204 76 28 0.0 4.0 0.00 0.00 0.00 57 1009.8
20260505184103 76 351 0.0 4.0 0.00 0.00 0.00 57 1009.9
20260505183900 76 351 0.0 4.0 0.00 0.00 0.00 57 1009.9
20260505183803 76 348 0.0 4.0 0.00 0.00 0.00 57 1009.9
20260505183702 76 49 0.0 4.0 0.00 0.00 0.00 57 1009.9
20260505183603 76 5 1.0 4.0 0.00 0.00 0.00 57 1010.0
20260505183505 76 9 2.0 4.0 0.00 0.00 0.00 57 1009.9
20260505183402 76 52 2.0 4.0 0.00 0.00 0.00 57 1010.0
20260505183302 76 31 1.0 4.0 0.00 0.00 0.00 57 1010.0
20260505183202 76 59 2.0 4.0 0.00 0.00 0.00 57 1010.0
20260505182906 77 55 3.0 4.0 0.00 0.00 0.00 57 1010.0
20260505182803 77 54 2.0 4.0 0.00 0.00 0.00 57 1010.1
20260505182602 77 62 1.0 4.0 0.00 0.00 0.00 57 1010.0
20260505182402 77 18 1.0 4.0 0.00 0.00 0.00 57 1010.1
20260505182202 77 29 0.0 3.0 0.00 0.00 0.00 57 1010.0
20260505182101 77 329 0.0 3.0 0.00 0.00 0.00 57 1010.1
20260505182004 77 329 1.0 3.0 0.00 0.00 0.00 57 1010.0
20260505181902 77 355 1.0 4.0 0.00 0.00 0.00 56 1010.0
20260505181803 77 53 1.0 4.0 0.00 0.00 0.00 57 1010.1
20260505181504 77 60 0.0 4.0 0.00 0.00 0.00 57 1010.1
20260505181403 77 66 0.0 4.0 0.00 0.00 0.00 57 1010.1
20260505181302 77 335 1.0 4.0 0.00 0.00 0.00 57 1010.1
20260505181202 77 11 2.0 4.0 0.00 0.00 0.00 57 1010.1
20260505181102 77 68 3.0 4.0 0.00 0.00 0.00 57 1010.1
20260505181005 77 35 2.0 4.0 0.00 0.00 0.00 57 1010.1
20260505180902 77 38 2.0 4.0 0.00 0.00 0.00 57 1010.1
20260505180802 77 60 1.0 4.0 0.00 0.00 0.00 57 1010.1
20260505180602 77 61 1.0 4.0 0.00 0.00 0.00 57 1010.1
20260505180507 77 28 2.0 4.0 0.00 0.00 0.00 57 1010.1
20260505180402 77 74 2.0 4.0 0.00 0.00 0.00 57 1010.2
20260505180303 77 43 1.0 4.0 0.00 0.00 0.00 57 1010.2
20260505180008 77 19 2.0 4.0 0.00 0.00 0.00 57 1010.2
20260505175905 77 43 2.0 4.0 0.00 0.00 0.00 57 1010.2
20260505175803 77 38 1.0 4.0 0.00 0.00 0.00 57 1010.2
20260505175603 77 37 1.0 4.0 0.00 0.00 0.00 57 1010.2
20260505175510 77 9 2.0 4.0 0.00 0.00 0.00 57 1010.2
20260505175404 77 344 2.0 4.0 0.00 0.00 0.00 57 1010.2
20260505175305 77 337 3.0 4.0 0.00 0.00 0.00 57 1010.2
20260505175103 77 23 1.0 6.0 0.00 0.00 0.00 57 1010.2
20260505175006 77 9 1.0 6.0 0.00 0.00 0.00 57 1010.2
20260505174903 77 16 1.0 6.0 0.00 0.00 0.00 57 1010.2
20260505174804 77 344 0.0 6.0 0.00 0.00 0.00 57 1010.2
20260505174607 77 5 1.0 6.0 0.00 0.00 0.00 57 1010.2
20260505174506 77 311 2.0 6.0 0.00 0.00 0.00 57 1010.2
20260505174405 77 29 3.0 6.0 0.00 0.00 0.00 57 1010.2
20260505174304 77 42 4.0 6.0 0.00 0.00 0.00 57 1010.2
20260505174203 77 49 4.0 6.0 0.00 0.00 0.00 58 1010.1
20260505174013 77 39 4.0 6.0 0.00 0.00 0.00 58 1010.2
20260505173904 77 59 4.0 6.0 0.00 0.00 0.00 58 1010.2
20260505173803 77 48 2.0 5.0 0.00 0.00 0.00 58 1010.2
20260505173702 77 56 1.0 5.0 0.00 0.00 0.00 58 1010.2
20260505173506 77 355 1.0 5.0 0.00 0.00 0.00 59 1010.2
20260505173403 77 334 2.0 5.0 0.00 0.00 0.00 59 1010.3
20260505173302 77 300 2.0 5.0 0.00 0.00 0.00 59 1010.3
20260505173203 78 298 1.0 5.0 0.00 0.00 0.00 58 1010.3
20260505173103 78 298 2.0 5.0 0.00 0.00 0.00 58 1010.3
20260505172903 78 30 2.0 5.0 0.00 0.00 0.00 58 1010.2
20260505172804 78 40 2.0 5.0 0.00 0.00 0.00 58 1010.3
20260505172703 78 38 3.0 5.0 0.00 0.00 0.00 58 1010.2
20260505172402 78 35 3.0 4.0 0.00 0.00 0.00 58 1010.3
20260505172203 78 337 1.0 3.0 0.00 0.00 0.00 58 1010.3
20260505172103 78 340 0.0 2.0 0.00 0.00 0.00 58 1010.2
20260505172009 78 336 0.0 3.0 0.00 0.00 0.00 58 1010.2
20260505171903 78 19 1.0 3.0 0.00 0.00 0.00 58 1010.2
20260505171804 78 33 0.0 3.0 0.00 0.00 0.00 58 1010.2
20260505171602 78 5 1.0 3.0 0.00 0.00 0.00 58 1010.2
20260505171403 78 40 1.0 3.0 0.00 0.00 0.00 58 1010.2
20260505171303 78 53 1.0 3.0 0.00 0.00 0.00 58 1010.2
20260505171202 78 9 1.0 3.0 0.00 0.00 0.00 58 1010.2
20260505171104 78 17 0.0 2.0 0.00 0.00 0.00 58 1010.2
20260505170903 78 341 0.0 2.0 0.00 0.00 0.00 58 1010.2
20260505170803 78 341 0.0 2.0 0.00 0.00 0.00 57 1010.2
20260505170703 78 341 1.0 2.0 0.00 0.00 0.00 57 1010.2
20260505170603 78 323 1.0 2.0 0.00 0.00 0.00 57 1010.2
20260505170505 78 323 0.0 2.0 0.00 0.00 0.00 57 1010.1
20260505170404 79 323 0.0 1.0 0.00 0.00 0.00 57 1010.2
20260505170303 79 323 0.0 1.0 0.00 0.00 0.00 57 1010.2
20260505170202 79 323 0.0 1.0 0.00 0.00 0.00 57 1010.2
20260505170104 79 323 0.0 1.0 0.00 0.00 0.00 57 1010.2
20260505165902 79 323 0.0 2.0 0.00 0.00 0.00 57 1010.2
20260505165804 79 321 0.0 2.0 0.00 0.00 0.00 57 1010.2
20260505165703 79 321 0.0 2.0 0.00 0.00 0.00 57 1010.3
20260505165602 79 321 0.0 2.0 0.00 0.00 0.00 57 1010.2
20260505165505 79 342 0.0 2.0 0.00 0.00 0.00 57 1010.3
20260505165104 79 312 1.0 3.0 0.00 0.00 0.00 56 1010.3
20260505165007 79 325 1.0 3.0 0.00 0.00 0.00 56 1010.3
20260505164903 79 347 1.0 3.0 0.00 0.00 0.00 56 1010.3
20260505164803 79 342 1.0 3.0 0.00 0.00 0.00 56 1010.3
20260505164704 79 343 1.0 3.0 0.00 0.00 0.00 56 1010.2
20260505164603 79 343 2.0 3.0 0.00 0.00 0.00 56 1010.3
20260505164505 79 329 2.0 3.0 0.00 0.00 0.00 55 1010.2
20260505164403 79 327 1.0 3.0 0.00 0.00 0.00 55 1010.2
20260505164205 80 315 1.0 3.0 0.00 0.00 0.00 55 1010.2
20260505164103 80 324 2.0 3.0 0.00 0.00 0.00 55 1010.2
20260505164006 80 323 1.0 4.0 0.00 0.00 0.00 55 1010.2
20260505163904 80 327 1.0 4.0 0.00 0.00 0.00 54 1010.2
20260505163804 80 306 2.0 4.0 0.00 0.00 0.00 54 1010.1
20260505163704 80 298 2.0 4.0 0.00 0.00 0.00 54 1010.1
20260505163603 80 306 1.0 4.0 0.00 0.00 0.00 54 1010.2
20260505163505 80 301 1.0 4.0 0.00 0.00 0.00 54 1010.2
20260505163404 80 313 2.0 4.0 0.00 0.00 0.00 53 1010.1
20260505163303 80 314 2.0 4.0 0.00 0.00 0.00 53 1010.1
20260505163203 80 313 2.0 4.0 0.00 0.00 0.00 53 1010.2
20260505163103 80 312 1.0 4.0 0.00 0.00 0.00 53 1010.1
20260505163009 81 311 1.0 4.0 0.00 0.00 0.00 52 1010.1
20260505162904 81 321 2.0 4.0 0.00 0.00 0.00 52 1010.2
20260505162803 81 300 2.0 4.0 0.00 0.00 0.00 52 1010.2
20260505162703 81 305 2.0 4.0 0.00 0.00 0.00 52 1010.2
20260505162603 81 313 2.0 4.0 0.00 0.00 0.00 51 1010.2
20260505162507 81 309 2.0 4.0 0.00 0.00 0.00 51 1010.2
20260505162404 81 309 2.0 4.0 0.00 0.00 0.00 51 1010.2
20260505162306 81 317 2.0 4.0 0.00 0.00 0.00 51 1010.1
20260505162104 81 313 2.0 3.0 0.00 0.00 0.00 51 1010.2
20260505162006 81 302 1.0 3.0 0.00 0.00 0.00 51 1010.2
20260505161903 81 302 1.0 3.0 0.00 0.00 0.00 51 1010.3
20260505161704 82 309 2.0 3.0 0.00 0.00 0.00 51 1010.2
20260505161505 82 311 1.0 3.0 0.00 0.00 0.00 50 1010.2
20260505161404 82 293 1.0 3.0 0.00 0.00 0.00 50 1010.2
20260505161104 82 333 2.0 3.0 0.00 0.00 0.00 49 1010.2
20260505161007 82 324 2.0 3.0 0.00 0.00 0.00 49 1010.2
20260505160904 82 321 1.0 2.0 0.00 0.00 0.00 49 1010.2
20260505160603 82 268 0.0 2.0 0.00 0.00 0.00 48 1010.2
20260505160506 82 268 1.0 2.0 0.00 0.00 0.00 48 1010.2
20260505160403 82 275 0.0 1.0 0.00 0.00 0.00 48 1010.2
20260505160104 82 290 0.0 0.0 0.00 0.00 0.00 48 1010.2
20260505153303 83 217 0.0 0.0 0.00 0.00 0.00 46 1010.2
20260505153203 83 217 0.0 0.0 0.00 0.00 0.00 46 1010.2
20260505153104 83 217 0.0 0.0 0.00 0.00 0.00 46 1010.2
20260505153006 83 217 0.0 0.0 0.00 0.00 0.00 46 1010.1
20260505152904 83 217 0.0 0.0 0.00 0.00 0.00 45 1010.1
20260505152804 83 217 0.0 0.0 0.00 0.00 0.00 45 1010.1
20260505152604 83 217 0.0 0.0 0.00 0.00 0.00 46 1010.1
20260505152505 83 217 0.0 0.0 0.00 0.00 0.00 46 1010.1
20260505152305 83 221 0.0 2.0 0.00 0.00 0.00 45 1010.1
20260505152203 84 221 0.0 2.0 0.00 0.00 0.00 45 1010.1
20260505152103 84 221 0.0 2.0 0.00 0.00 0.00 45 1010.1
20260505152006 84 221 0.0 2.0 0.00 0.00 0.00 45 1010.0
20260505151903 84 220 0.0 2.0 0.00 0.00 0.00 45 1010.0
20260505151703 84 188 0.0 2.0 0.00 0.00 0.00 44 1010.1
20260505151504 84 188 0.0 2.0 0.00 0.00 0.00 44 1010.0
20260505151403 84 188 0.0 1.0 0.00 0.00 0.00 44 1010.0
20260505151304 84 188 0.0 1.0 0.00 0.00 0.00 44 1010.0
20260505151204 84 188 0.0 1.0 0.00 0.00 0.00 44 1010.0
20260505151103 84 188 0.0 2.0 0.00 0.00 0.00 44 1009.9
20260505151006 84 188 0.0 2.0 0.00 0.00 0.00 44 1009.9
20260505150903 84 188 0.0 2.0 0.00 0.00 0.00 44 1009.9
20260505150704 84 188 0.0 2.0 0.00 0.00 0.00 44 1009.8
20260505150603 84 188 0.0 2.0 0.00 0.00 0.00 44 1009.8
20260505150404 84 188 1.0 3.0 0.00 0.00 0.00 43 1009.8
20260505150304 84 188 1.0 3.0 0.00 0.00 0.00 43 1009.7
20260505150204 84 198 1.0 3.0 0.00 0.00 0.00 44 1009.8
20260505140604 85 261 1.0 6.0 0.00 0.00 0.00 41 1009.5
20260505140505 85 269 1.0 6.0 0.00 0.00 0.00 40 1009.5
20260505140402 85 259 2.0 6.0 0.00 0.00 0.00 40 1009.6
20260505140306 85 270 3.0 6.0 0.00 0.00 0.00 40 1009.6
20260505140202 85 251 3.0 6.0 0.00 0.00 0.00 40 1009.5
20260505130303 89 308 3.0 8.0 0.00 0.00 0.00 36 1009.6
20260505130201 89 274 4.0 8.0 0.00 0.00 0.00 36 1009.6
20260505125006 90 279 3.0 8.0 0.00 0.00 0.00 36 1009.7
20260505124902 90 311 4.0 8.0 0.00 0.00 0.00 36 1009.6
20260505124801 90 307 5.0 8.0 0.00 0.00 0.00 36 1009.6
20260505124703 90 286 5.0 8.0 0.00 0.00 0.00 36 1009.6
20260505124603 90 295 4.0 8.0 0.00 0.00 0.00 36 1009.7
20260505124505 90 270 3.0 8.0 0.00 0.00 0.00 36 1009.7
20260505124302 90 244 4.0 7.0 0.00 0.00 0.00 35 1009.7
20260505124202 90 295 4.0 9.0 0.00 0.00 0.00 35 1009.7
20260505124101 90 281 4.0 9.0 0.00 0.00 0.00 34 1009.6
20260505124005 90 266 4.0 9.0 0.00 0.00 0.00 35 1009.7
20260505123903 90 281 3.0 10.0 0.00 0.00 0.00 35 1009.7
20260505123803 90 296 4.0 10.0 0.00 0.00 0.00 35 1009.8
20260505123702 90 279 4.0 10.0 0.00 0.00 0.00 35 1009.7
20260505123602 90 271 4.0 10.0 0.00 0.00 0.00 35 1009.8
20260505123505 90 252 5.0 10.0 0.00 0.00 0.00 35 1009.7
20260505123403 90 288 6.0 10.0 0.00 0.00 0.00 35 1009.8
20260505123302 90 276 6.0 10.0 0.00 0.00 0.00 35 1009.9
20260505123202 90 271 6.0 10.0 0.00 0.00 0.00 34 1009.8
20260505122903 91 270 6.0 10.0 0.00 0.00 0.00 35 1009.8
20260505122802 91 316 4.0 8.0 0.00 0.00 0.00 35 1009.7
20260505122703 91 312 3.0 6.0 0.00 0.00 0.00 35 1009.8
20260505122602 91 328 4.0 6.0 0.00 0.00 0.00 34 1009.8
20260505122305 91 231 3.0 7.0 0.00 0.00 0.00 33 1009.7
20260505122202 91 264 3.0 8.0 0.00 0.00 0.00 34 1009.7
20260505122102 91 342 4.0 9.0 0.00 0.00 0.00 34 1009.7
20260505122005 91 270 5.0 9.0 0.00 0.00 0.00 34 1009.7
20260505121902 91 280 5.0 9.0 0.00 0.00 0.00 34 1009.7
20260505121803 91 280 4.0 9.0 0.00 0.00 0.00 34 1009.7
20260505121603 91 286 3.0 9.0 0.00 0.00 0.00 33 1009.6
20260505121506 91 273 4.0 9.0 0.00 0.00 0.00 33 1009.6
20260505121402 91 263 5.0 9.0 0.00 0.00 0.00 33 1009.5
20260505121303 91 306 5.0 9.0 0.00 0.00 0.00 33 1009.5
20260505121201 91 279 5.0 9.0 0.00 0.00 0.00 33 1009.5
20260505121103 91 261 5.0 9.0 0.00 0.00 0.00 33 1009.5
20260505121004 91 263 5.0 9.0 0.00 0.00 0.00 34 1009.4
20260505120903 91 286 5.0 9.0 0.00 0.00 0.00 34 1009.4
20260505120801 91 273 5.0 9.0 0.00 0.00 0.00 33 1009.4
20260505120703 91 290 5.0 9.0 0.00 0.00 0.00 32 1009.4
20260505120603 91 273 5.0 9.0 0.00 0.00 0.00 32 1009.5
20260505120504 91 287 6.0 9.0 0.00 0.00 0.00 32 1009.5
20260505120402 91 279 5.0 9.0 0.00 0.00 0.00 32 1009.5
20260505120011 91 273 6.0 8.0 0.00 0.00 0.00 30 1009.5
20260505115902 91 298 4.0 8.0 0.00 0.00 0.00 31 1009.5
20260505115802 91 290 3.0 6.0 0.00 0.00 0.00 31 1009.5
20260505115704 91 271 3.0 7.0 0.00 0.00 0.00 32 1009.6
20260505115602 91 286 3.0 7.0 0.00 0.00 0.00 31 1009.6
20260505115404 91 269 3.0 8.0 0.00 0.00 0.00 31 1009.6
20260505115305 91 273 3.0 8.0 0.00 0.00 0.00 31 1009.6
20260505115203 91 275 3.0 8.0 0.00 0.00 0.00 31 1009.6
20260505115104 92 275 2.0 8.0 0.00 0.00 0.00 32 1009.6
20260505115007 92 264 3.0 8.0 0.00 0.00 0.00 32 1009.7
20260505114901 92 250 4.0 8.0 0.00 0.00 0.00 31 1009.7
20260505114805 92 241 4.0 8.0 0.00 0.00 0.00 31 1009.7
20260505114703 92 257 5.0 8.0 0.00 0.00 0.00 31 1009.7
20260505114602 92 263 5.0 8.0 0.00 0.00 0.00 30 1009.7
20260505114506 92 269 4.0 7.0 0.00 0.00 0.00 30 1009.7
20260505114403 92 248 4.0 6.0 0.00 0.00 0.00 30 1009.7
20260505114301 92 271 4.0 7.0 0.00 0.00 0.00 31 1009.7
20260505114203 92 238 2.0 7.0 0.00 0.00 0.00 31 1009.8
20260505114005 92 210 1.0 7.0 0.00 0.00 0.00 31 1009.8
20260505113908 92 262 2.0 7.0 0.00 0.00 0.00 31 1009.7
20260505113703 92 278 2.0 7.0 0.00 0.00 0.00 30 1009.8
20260505113604 92 287 3.0 7.0 0.00 0.00 0.00 30 1009.8
20260505113505 92 261 4.0 7.0 0.00 0.00 0.00 30 1009.8
20260505113103 92 246 2.0 6.0 0.00 0.00 0.00 31 1009.8
20260505113008 92 294 1.0 4.0 0.00 0.00 0.00 32 1009.9
20260505112901 91 271 2.0 6.0 0.00 0.00 0.00 31 1009.8
20260505112805 91 302 2.0 6.0 0.00 0.00 0.00 31 1009.9
20260505112703 91 302 2.0 6.0 0.00 0.00 0.00 30 1009.9
20260505112506 91 344 1.0 9.0 0.00 0.00 0.00 32 1009.9
20260505112405 91 338 0.0 9.0 0.00 0.00 0.00 32 1009.9
20260505112203 91 275 3.0 9.0 0.00 0.00 0.00 32 1009.9
20260505112106 91 296 4.0 9.0 0.00 0.00 0.00 32 1010.0
20260505111904 91 278 4.0 9.0 0.00 0.00 0.00 33 1009.9
20260505111705 91 274 3.0 8.0 0.00 0.00 0.00 33 1009.9
20260505111601 91 241 3.0 10.0 0.00 0.00 0.00 34 1009.9
20260505111504 91 227 3.0 10.0 0.00 0.00 0.00 33 1009.9
20260505111403 91 252 4.0 10.0 0.00 0.00 0.00 33 1009.8
20260505111302 91 241 4.0 10.0 0.00 0.00 0.00 34 1009.9
20260505111202 91 244 4.0 10.0 0.00 0.00 0.00 34 1009.9
20260505111103 91 243 4.0 10.0 0.00 0.00 0.00 34 1009.9
20260505111008 91 255 5.0 10.0 0.00 0.00 0.00 35 1009.9
20260505110901 91 297 7.0 10.0 0.00 0.00 0.00 35 1009.9
20260505110804 91 271 7.0 10.0 0.00 0.00 0.00 34 1010.0
20260505110702 91 265 6.0 10.0 0.00 0.00 0.00 34 1009.9
20260505110603 91 294 4.0 12.0 0.00 0.00 0.00 34 1010.0
20260505110506 91 284 3.0 12.0 0.00 0.00 0.00 34 1009.9
20260505110404 91 295 3.0 12.0 0.00 0.00 0.00 34 1010.0
20260505110303 91 331 3.0 12.0 0.00 0.00 0.00 34 1010.0
20260505110202 91 300 3.0 12.0 0.00 0.00 0.00 34 1009.9
20260505102202 90 283 8.0 14.0 0.00 0.00 0.00 38 1010.2
20260505101901 90 313 7.0 13.0 0.00 0.00 0.00 37 1010.2
20260505101802 90 245 8.0 13.0 0.00 0.00 0.00 37 1010.3
20260505101704 90 251 9.0 13.0 0.00 0.00 0.00 38 1010.3
20260505101602 90 277 7.0 13.0 0.00 0.00 0.00 38 1010.2
20260505101506 90 300 5.0 11.0 0.00 0.00 0.00 37 1010.3
20260505101204 90 271 6.0 13.0 0.00 0.00 0.00 38 1010.3
20260505101102 90 296 7.0 13.0 0.00 0.00 0.00 38 1010.3
20260505101006 90 312 6.0 13.0 0.00 0.00 0.00 39 1010.3
20260505100902 90 261 4.0 13.0 0.00 0.00 0.00 39 1010.2
20260505100801 90 265 5.0 13.0 0.00 0.00 0.00 38 1010.3
20260505100704 90 294 7.0 13.0 0.00 0.00 0.00 38 1010.3
20260505100604 90 284 8.0 13.0 0.00 0.00 0.00 39 1010.3
20260505100505 90 254 8.0 13.0 0.00 0.00 0.00 39 1010.4
20260505100401 90 269 8.0 13.0 0.00 0.00 0.00 39 1010.2
20260505100203 90 252 10.0 13.0 0.00 0.00 0.00 39 1010.3
20260505100006 90 242 5.0 11.0 0.00 0.00 0.00 39 1010.3
20260505095902 90 292 4.0 11.0 0.00 0.00 0.00 38 1010.3
20260505095804 90 294 4.0 13.0 0.00 0.00 0.00 39 1010.3
20260505095703 90 273 6.0 13.0 0.00 0.00 0.00 39 1010.4
20260505095604 90 271 8.0 13.0 0.00 0.00 0.00 39 1010.4
20260505095503 90 271 8.0 13.0 0.00 0.00 0.00 39 1010.4
20260505095403 90 314 7.0 15.0 0.00 0.00 0.00 39 1010.4
20260505095304 90 304 5.0 15.0 0.00 0.00 0.00 39 1010.5
20260505095202 90 294 6.0 15.0 0.00 0.00 0.00 38 1010.4
20260505095103 90 294 8.0 15.0 0.00 0.00 0.00 39 1010.4
20260505095005 90 294 9.0 15.0 0.00 0.00 0.00 39 1010.4
20260505094903 90 271 7.0 15.0 0.00 0.00 0.00 39 1010.5
20260505094705 90 315 9.0 15.0 0.00 0.00 0.00 39 1010.5
20260505094509 90 296 1.0 13.0 0.00 0.00 0.00 40 1010.5
20260505094402 90 327 3.0 13.0 0.00 0.00 0.00 40 1010.5
20260505094304 90 301 6.0 13.0 0.00 0.00 0.00 40 1010.6
20260505094103 90 274 6.0 13.0 0.00 0.00 0.00 40 1010.5
20260505094004 90 309 5.0 12.0 0.00 0.00 0.00 41 1010.5
20260505093904 90 279 6.0 12.0 0.00 0.00 0.00 40 1010.6
20260505093801 90 291 5.0 12.0 0.00 0.00 0.00 40 1010.5
20260505093704 90 212 4.0 12.0 0.00 0.00 0.00 40 1010.6
20260505093603 90 272 6.0 12.0 0.00 0.00 0.00 40 1010.6
20260505093503 90 284 7.0 12.0 0.00 0.00 0.00 40 1010.6
20260505093202 90 318 4.0 12.0 0.00 0.00 0.00 40 1010.7
20260505093103 90 344 5.0 12.0 0.00 0.00 0.00 39 1010.8
20260505093005 90 285 6.0 12.0 0.00 0.00 0.00 39 1010.9
20260505092901 90 306 8.0 12.0 0.00 0.00 0.00 39 1010.9
20260505092703 90 301 3.0 12.0 0.00 0.00 0.00 40 1011.0
20260505092602 90 279 5.0 12.0 0.00 0.00 0.00 40 1010.9
20260505092505 90 295 8.0 12.0 0.00 0.00 0.00 39 1011.0
20260505092305 90 274 5.0 15.0 0.00 0.00 0.00 40 1010.9
20260505092203 90 279 6.0 15.0 0.00 0.00 0.00 40 1011.0
20260505092103 90 296 7.0 15.0 0.00 0.00 0.00 41 1010.9
20260505091902 90 286 8.0 15.0 0.00 0.00 0.00 40 1011.0
20260505091804 90 260 9.0 15.0 0.00 0.00 0.00 40 1010.9
20260505091702 90 275 10.0 15.0 0.00 0.00 0.00 40 1011.1
20260505091601 90 260 8.0 15.0 0.00 0.00 0.00 41 1011.0
20260505091505 90 275 5.0 15.0 0.00 0.00 0.00 42 1011.0
20260505091404 90 240 5.0 12.0 0.00 0.00 0.00 40 1011.0
20260505091304 90 252 8.0 12.0 0.00 0.00 0.00 40 1011.1
20260505091204 90 315 8.0 12.0 0.00 0.00 0.00 41 1011.1
20260505091004 90 304 6.0 13.0 0.00 0.00 0.00 42 1011.1
20260505090904 90 267 8.0 13.0 0.00 0.00 0.00 40 1011.2
20260505090802 90 269 8.0 13.0 0.00 0.00 0.00 42 1011.2
20260505090702 90 301 7.0 13.0 0.00 0.00 0.00 41 1011.1
20260505090504 90 267 7.0 13.0 0.00 0.00 0.00 41 1011.2
20260505090403 90 256 6.0 13.0 0.00 0.00 0.00 43 1011.2
20260505090304 90 294 5.0 13.0 0.00 0.00 0.00 43 1011.3
20260505090202 89 257 5.0 13.0 0.00 0.00 0.00 42 1011.2
20260505085902 89 271 7.0 14.0 0.00 0.00 0.00 41 1011.2
20260505085805 89 232 7.0 14.0 0.00 0.00 0.00 42 1011.3
20260505085703 89 254 7.0 14.0 0.00 0.00 0.00 42 1011.3
20260505085602 89 257 6.0 14.0 0.00 0.00 0.00 41 1011.4
20260505085304 90 262 10.0 14.0 0.00 0.00 0.00 41 1011.4
20260505085208 90 278 10.0 14.0 0.00 0.00 0.00 43 1011.3
20260505085102 90 266 9.0 18.0 0.00 0.00 0.00 43 1011.4
20260505085005 90 272 9.0 18.0 0.00 0.00 0.00 43 1011.4
20260505084902 90 287 9.0 18.0 0.00 0.00 0.00 42 1011.4
20260505084803 90 333 9.0 18.0 0.00 0.00 0.00 41 1011.4
20260505084702 90 295 8.0 18.0 0.00 0.00 0.00 42 1011.5
20260505084603 90 259 7.0 18.0 0.00 0.00 0.00 41 1011.5
20260505084402 90 287 10.0 18.0 0.00 0.00 0.00 42 1011.5
20260505084305 90 281 10.0 18.0 0.00 0.00 0.00 43 1011.5
20260505084105 90 267 7.0 12.0 0.00 0.00 0.00 41 1011.5
20260505084009 90 286 4.0 11.0 0.00 0.00 0.00 42 1011.5
20260505083803 90 299 4.0 11.0 0.00 0.00 0.00 42 1011.5
20260505083703 90 292 4.0 11.0 0.00 0.00 0.00 42 1011.4
20260505083603 90 305 3.0 14.0 0.00 0.00 0.00 42 1011.5
20260505083504 90 204 2.0 14.0 0.00 0.00 0.00 43 1011.5
20260505083403 89 238 2.0 14.0 0.00 0.00 0.00 43 1011.5
20260505083302 89 205 2.0 14.0 0.00 0.00 0.00 42 1011.5
20260505083202 89 219 4.0 14.0 0.00 0.00 0.00 42 1011.6
20260505083103 90 273 7.0 14.0 0.00 0.00 0.00 41 1011.7
20260505082901 90 259 8.0 14.0 0.00 0.00 0.00 42 1011.6
20260505082804 90 267 7.0 14.0 0.00 0.00 0.00 42 1011.5
20260505082703 90 290 5.0 12.0 0.00 0.00 0.00 43 1011.6
20260505082602 89 300 3.0 12.0 0.00 0.00 0.00 42 1011.5
20260505082505 89 232 3.0 12.0 0.00 0.00 0.00 43 1011.6
20260505082402 89 218 3.0 13.0 0.00 0.00 0.00 42 1011.6
20260505082304 89 302 4.0 13.0 0.00 0.00 0.00 43 1011.6
20260505082202 89 227 6.0 13.0 0.00 0.00 0.00 43 1011.6
20260505082103 89 291 9.0 13.0 0.00 0.00 0.00 42 1011.6
20260505082005 89 306 8.0 13.0 0.00 0.00 0.00 44 1011.7
20260505081802 89 287 6.0 13.0 0.00 0.00 0.00 42 1011.7
20260505081704 89 337 8.0 13.0 0.00 0.00 0.00 42 1011.8
20260505081601 89 335 9.0 13.0 0.00 0.00 0.00 42 1011.7
20260505081504 89 300 7.0 13.0 0.00 0.00 0.00 43 1011.8
20260505081402 89 298 6.0 13.0 0.00 0.00 0.00 43 1011.8
20260505081300 89 251 4.0 13.0 0.00 0.00 0.00 42 1011.8
20260505081202 89 287 4.0 13.0 0.00 0.00 0.00 43 1011.8
20260505081103 89 288 2.0 13.0 0.00 0.00 0.00 42 1011.8
20260505080903 89 256 4.0 13.0 0.00 0.00 0.00 42 1011.9
20260505080802 89 255 5.0 13.0 0.00 0.00 0.00 44 1011.9
20260505080706 89 311 6.0 13.0 0.00 0.00 0.00 43 1011.9
20260505080604 89 215 4.0 12.0 0.00 0.00 0.00 42 1012.1
20260505080505 89 255 6.0 12.0 0.00 0.00 0.00 42 1012.0
20260505080403 89 265 8.0 12.0 0.00 0.00 0.00 42 1012.1
20260505080303 89 288 8.0 12.0 0.00 0.00 0.00 43 1012.1
20260505080205 89 284 7.0 12.0 0.00 0.00 0.00 42 1012.1
20260505080005 89 290 5.0 10.0 0.00 0.00 0.00 44 1012.2
20260505075901 89 244 3.0 10.0 0.00 0.00 0.00 43 1012.3
20260505075702 89 212 4.0 10.0 0.00 0.00 0.00 41 1012.3
20260505075402 89 189 4.0 8.0 0.00 0.00 0.00 41 1012.3
20260505075304 90 223 4.0 9.0 0.00 0.00 0.00 41 1012.3
20260505075158 90 246 5.0 9.0 0.00 0.00 0.00 41 1012.3
20260505075005 90 266 4.0 9.0 0.00 0.00 0.00 41 1012.3
20260505074903 90 246 4.0 9.0 0.00 0.00 0.00 41 1012.3
20260505074803 90 246 4.0 9.0 0.00 0.00 0.00 41 1012.3
20260505074702 90 248 3.0 9.0 0.00 0.00 0.00 42 1012.2
20260505074603 90 283 2.0 9.0 0.00 0.00 0.00 43 1012.3
20260505074504 89 257 4.0 9.0 0.00 0.00 0.00 42 1012.3
20260505074303 89 185 3.0 8.0 0.00 0.00 0.00 43 1012.3
20260505074202 89 159 2.0 5.0 0.00 0.00 0.00 43 1012.2
20260505074104 89 215 2.0 8.0 0.00 0.00 0.00 44 1012.3
20260505074006 89 232 3.0 8.0 0.00 0.00 0.00 42 1012.2
20260505073901 89 238 1.0 8.0 0.00 0.00 0.00 42 1012.3
20260505073802 89 318 1.0 8.0 0.00 0.00 0.00 43 1012.2
20260505073702 89 288 1.0 8.0 0.00 0.00 0.00 43 1012.3
20260505073602 89 271 1.0 8.0 0.00 0.00 0.00 45 1012.3
20260505073503 89 250 1.0 8.0 0.00 0.00 0.00 44 1012.3
20260505073401 89 288 3.0 8.0 0.00 0.00 0.00 44 1012.3
20260505073204 89 267 2.0 9.0 0.00 0.00 0.00 41 1012.3
20260505073102 89 291 1.0 9.0 0.00 0.00 0.00 42 1012.3
20260505073005 89 314 1.0 9.0 0.00 0.00 0.00 43 1012.4
20260505072901 89 319 3.0 9.0 0.00 0.00 0.00 42 1012.3
20260505072800 89 287 4.0 9.0 0.00 0.00 0.00 42 1012.3
20260505072601 89 304 4.0 9.0 0.00 0.00 0.00 42 1012.4
20260505072504 89 286 5.0 9.0 0.00 0.00 0.00 42 1012.4
20260505072401 89 279 5.0 9.0 0.00 0.00 0.00 43 1012.4
20260505072202 89 285 3.0 8.0 0.00 0.00 0.00 42 1012.4
20260505072101 89 327 2.0 4.0 0.00 0.00 0.00 42 1012.4
20260505072004 89 315 2.0 4.0 0.00 0.00 0.00 42 1012.4
20260505071903 89 276 1.0 4.0 0.00 0.00 0.00 43 1012.5
20260505071802 89 281 1.0 4.0 0.00 0.00 0.00 43 1012.5
20260505071602 88 334 2.0 7.0 0.00 0.00 0.00 43 1012.5
20260505071503 88 315 2.0 7.0 0.00 0.00 0.00 43 1012.6
20260505071403 88 289 1.0 7.0 0.00 0.00 0.00 44 1012.6
20260505071302 88 252 1.0 7.0 0.00 0.00 0.00 43 1012.6
20260505071102 88 257 1.0 7.0 0.00 0.00 0.00 45 1012.6
20260505070802 88 230 3.0 7.0 0.00 0.00 0.00 44 1012.7
20260505070700 88 223 2.0 7.0 0.00 0.00 0.00 44 1012.7
20260505070601 88 262 1.0 8.0 0.00 0.00 0.00 44 1012.7
20260505070501 88 287 2.0 8.0 0.00 0.00 0.00 43 1012.8
20260505070401 88 217 2.0 9.0 0.00 0.00 0.00 44 1012.8
20260505070302 88 205 1.0 10.0 0.00 0.00 0.00 44 1012.7
20260505070201 88 281 2.0 10.0 0.00 0.00 0.00 43 1012.9
20260505070005 88 288 3.0 10.0 0.00 0.00 0.00 44 1012.9
20260505065904 88 249 5.0 10.0 0.00 0.00 0.00 44 1013.0
20260505065801 88 263 5.0 10.0 0.00 0.00 0.00 44 1013.0
20260505065601 88 287 5.0 10.0 0.00 0.00 0.00 44 1013.0
20260505065403 88 187 1.0 6.0 0.00 0.00 0.00 43 1013.0
20260505065303 88 187 1.0 6.0 0.00 0.00 0.00 45 1013.0
20260505065202 88 180 0.0 6.0 0.00 0.00 0.00 45 1013.1
20260505065004 88 151 1.0 8.0 0.00 0.00 0.00 45 1013.1
20260505064802 88 177 3.0 8.0 0.00 0.00 0.00 44 1013.2
20260505064701 88 187 4.0 8.0 0.00 0.00 0.00 44 1013.1
20260505064503 88 204 2.0 8.0 0.00 0.00 0.00 44 1013.2
20260505064402 88 205 4.0 8.0 0.00 0.00 0.00 45 1013.2
20260505064200 88 201 2.0 8.0 0.00 0.00 0.00 45 1013.2
20260505064102 88 198 1.0 6.0 0.00 0.00 0.00 45 1013.2
20260505064005 87 273 1.0 4.0 0.00 0.00 0.00 45 1013.2
20260505063902 87 294 1.0 3.0 0.00 0.00 0.00 44 1013.1
20260505063802 87 312 1.0 3.0 0.00 0.00 0.00 45 1013.2
20260505063602 87 106 0.0 3.0 0.00 0.00 0.00 45 1013.2
20260505063503 87 29 0.0 5.0 0.00 0.00 0.00 45 1013.2
20260505063401 86 41 0.0 5.0 0.00 0.00 0.00 45 1013.2
20260505063301 86 55 0.0 6.0 0.00 0.00 0.00 45 1013.2
20260505063203 86 109 0.0 6.0 0.00 0.00 0.00 45 1013.3
20260505063101 86 212 0.0 8.0 0.00 0.00 0.00 45 1013.3
20260505063004 86 221 1.0 9.0 0.00 0.00 0.00 45 1013.1
20260505062703 86 225 3.0 10.0 0.00 0.00 0.00 46 1013.3
20260505062601 86 220 2.0 10.0 0.00 0.00 0.00 45 1013.3
20260505062503 86 221 2.0 10.0 0.00 0.00 0.00 45 1013.3
20260505062401 86 234 4.0 10.0 0.00 0.00 0.00 45 1013.3
20260505062300 87 261 6.0 10.0 0.00 0.00 0.00 44 1013.3
20260505062102 87 254 3.0 10.0 0.00 0.00 0.00 45 1013.3
20260505062003 87 229 1.0 5.0 0.00 0.00 0.00 45 1013.3
20260505061903 87 227 3.0 5.0 0.00 0.00 0.00 46 1013.4
20260505061801 87 217 4.0 5.0 0.00 0.00 0.00 45 1013.4
20260505061604 87 238 1.0 4.0 0.00 0.00 0.00 46 1013.3
20260505061301 86 179 0.0 6.0 0.00 0.00 0.00 46 1013.5
20260505061101 86 159 1.0 8.0 0.00 0.00 0.00 45 1013.5
20260505061005 86 138 1.0 8.0 0.00 0.00 0.00 45 1013.5
20260505060901 86 147 2.0 8.0 0.00 0.00 0.00 45 1013.5
20260505060803 86 194 3.0 8.0 0.00 0.00 0.00 45 1013.5
20260505060702 86 190 2.0 8.0 0.00 0.00 0.00 46 1013.5
20260505060504 86 260 2.0 8.0 0.00 0.00 0.00 45 1013.5
20260505060403 86 246 4.0 8.0 0.00 0.00 0.00 46 1013.6
20260505060301 87 247 4.0 8.0 0.00 0.00 0.00 46 1013.6
20260505060203 87 268 4.0 7.0 0.00 0.00 0.00 46 1013.6
20260505060010 87 254 2.0 5.0 0.00 0.00 0.00 46 1013.5
20260505055902 87 272 2.0 5.0 0.00 0.00 0.00 47 1013.6
20260505055803 87 275 2.0 5.0 0.00 0.00 0.00 47 1013.6
20260505055704 87 252 1.0 4.0 0.00 0.00 0.00 47 1013.6
20260505055603 86 182 1.0 4.0 0.00 0.00 0.00 47 1013.6
20260505055403 86 338 0.0 4.0 0.00 0.00 0.00 46 1013.6
20260505055304 86 355 2.0 4.0 0.00 0.00 0.00 46 1013.7
20260505055209 86 302 2.0 4.0 0.00 0.00 0.00 46 1013.7
20260505055104 86 333 1.0 3.0 0.00 0.00 0.00 46 1013.6
20260505055008 85 59 0.0 3.0 0.00 0.00 0.00 46 1013.6
20260505054904 85 155 0.0 3.0 0.00 0.00 0.00 46 1013.7
20260505054803 85 163 0.0 3.0 0.00 0.00 0.00 46 1013.7
20260505054705 85 162 1.0 3.0 0.00 0.00 0.00 46 1013.7
20260505054603 85 280 1.0 3.0 0.00 0.00 0.00 46 1013.7
20260505054506 85 250 1.0 3.0 0.00 0.00 0.00 46 1013.7
20260505054405 85 209 0.0 4.0 0.00 0.00 0.00 47 1013.7
20260505054304 85 174 0.0 4.0 0.00 0.00 0.00 46 1013.8
20260505054204 85 130 1.0 4.0 0.00 0.00 0.00 46 1013.7
20260505054008 85 113 2.0 4.0 0.00 0.00 0.00 46 1013.8
20260505053900 85 130 2.0 5.0 0.00 0.00 0.00 47 1013.7
20260505053802 85 213 1.0 5.0 0.00 0.00 0.00 47 1013.8
20260505053705 85 249 1.0 5.0 0.00 0.00 0.00 47 1013.8
20260505053505 85 240 0.0 5.0 0.00 0.00 0.00 47 1013.7
20260505053404 85 223 1.0 5.0 0.00 0.00 0.00 47 1013.7
20260505053302 85 258 1.0 5.0 0.00 0.00 0.00 48 1013.7
20260505053203 85 269 2.0 5.0 0.00 0.00 0.00 47 1013.7
20260505053104 85 203 3.0 5.0 0.00 0.00 0.00 47 1013.7
20260505053006 85 199 2.0 5.0 0.00 0.00 0.00 48 1013.7
20260505052903 85 245 2.0 5.0 0.00 0.00 0.00 48 1013.7
20260505052802 85 211 2.0 5.0 0.00 0.00 0.00 48 1013.8
20260505052604 85 237 1.0 5.0 0.00 0.00 0.00 48 1013.6
20260505052505 85 185 1.0 5.0 0.00 0.00 0.00 48 1013.8
20260505052405 84 175 1.0 5.0 0.00 0.00 0.00 48 1013.7
20260505052304 84 156 1.0 5.0 0.00 0.00 0.00 47 1013.8
20260505052203 84 131 0.0 5.0 0.00 0.00 0.00 47 1013.8
20260505052104 84 79 0.0 5.0 0.00 0.00 0.00 47 1013.7
20260505052006 84 188 0.0 5.0 0.00 0.00 0.00 47 1013.8
20260505051903 84 188 2.0 5.0 0.00 0.00 0.00 47 1013.8
20260505051802 84 179 3.0 5.0 0.00 0.00 0.00 48 1013.8
20260505051702 84 186 2.0 4.0 0.00 0.00 0.00 48 1013.8
20260505051403 84 279 2.0 5.0 0.00 0.00 0.00 48 1013.8
20260505051304 84 279 1.0 5.0 0.00 0.00 0.00 49 1013.7
20260505051206 84 233 1.0 5.0 0.00 0.00 0.00 49 1013.7
20260505051107 84 240 1.0 5.0 0.00 0.00 0.00 49 1013.8
20260505051005 84 247 1.0 5.0 0.00 0.00 0.00 49 1013.8
20260505050903 84 225 1.0 5.0 0.00 0.00 0.00 49 1013.8
20260505050802 84 201 2.0 5.0 0.00 0.00 0.00 49 1013.8
20260505050703 84 201 1.0 3.0 0.00 0.00 0.00 49 1013.8
20260505050603 84 211 1.0 3.0 0.00 0.00 0.00 49 1013.7
20260505050506 84 248 1.0 3.0 0.00 0.00 0.00 49 1013.7
20260505050403 84 248 1.0 3.0 0.00 0.00 0.00 48 1013.7
20260505050303 84 275 1.0 3.0 0.00 0.00 0.00 48 1013.7
20260505041704 81 246 0.0 3.0 0.00 0.00 0.00 53 1013.9
20260505041603 81 40 1.0 3.0 0.00 0.00 0.00 53 1013.9
20260505041505 81 23 1.0 3.0 0.00 0.00 0.00 53 1013.9
20260505041404 81 28 1.0 3.0 0.00 0.00 0.00 53 1014.0
20260505041302 81 44 1.0 3.0 0.00 0.00 0.00 54 1013.9
20260505041204 81 43 1.0 4.0 0.00 0.00 0.00 54 1013.9
20260505041103 81 325 0.0 4.0 0.00 0.00 0.00 54 1013.8
20260505041006 80 291 1.0 4.0 0.00 0.00 0.00 54 1013.9
20260505040902 80 309 1.0 4.0 0.00 0.00 0.00 54 1013.8
20260505040804 80 350 0.0 4.0 0.00 0.00 0.00 54 1013.8
20260505040704 80 329 0.0 4.0 0.00 0.00 0.00 54 1013.9
20260505040604 80 20 0.0 6.0 0.00 0.00 0.00 54 1013.9
20260505040403 80 53 3.0 6.0 0.00 0.00 0.00 54 1013.8
20260505040304 80 36 2.0 6.0 0.00 0.00 0.00 54 1014.0
20260505040203 80 19 0.0 6.0 0.00 0.00 0.00 54 1013.9
20260505040104 80 49 1.0 6.0 0.00 0.00 0.00 53 1013.9
20260505040005 80 49 2.0 6.0 0.00 0.00 0.00 54 1013.8
20260505035903 80 79 3.0 6.0 0.00 0.00 0.00 54 1013.8
20260505035803 80 78 3.0 6.0 0.00 0.00 0.00 54 1013.8
20260505035704 80 44 2.0 4.0 0.00 0.00 0.00 55 1013.9
20260505035603 80 355 1.0 3.0 0.00 0.00 0.00 54 1013.8
20260505035505 80 360 1.0 3.0 0.00 0.00 0.00 54 1013.9
20260505035404 80 345 1.0 3.0 0.00 0.00 0.00 54 1013.8
20260505035103 79 346 0.0 3.0 0.00 0.00 0.00 55 1013.8
20260505035006 79 54 0.0 3.0 0.00 0.00 0.00 55 1013.8
20260505034905 79 55 0.0 3.0 0.00 0.00 0.00 55 1013.8
20260505034805 79 28 1.0 3.0 0.00 0.00 0.00 55 1013.9
20260505034705 79 5 2.0 3.0 0.00 0.00 0.00 55 1013.8
20260505034605 79 5 2.0 3.0 0.00 0.00 0.00 55 1013.8
20260505034506 79 41 2.0 3.0 0.00 0.00 0.00 55 1013.8
20260505034404 79 19 1.0 3.0 0.00 0.00 0.00 56 1013.8
20260505034203 79 25 0.0 5.0 0.00 0.00 0.00 55 1013.8
20260505033804 78 22 1.0 5.0 0.00 0.00 0.00 56 1013.7
20260505033703 78 5 2.0 5.0 0.00 0.00 0.00 55 1013.8
20260505033604 78 34 2.0 5.0 0.00 0.00 0.00 56 1013.7
20260505033404 78 24 3.0 5.0 0.00 0.00 0.00 56 1013.7
20260505033303 78 34 2.0 5.0 0.00 0.00 0.00 57 1013.7
20260505033203 78 54 1.0 5.0 0.00 0.00 0.00 57 1013.7
20260505033105 78 345 0.0 3.0 0.00 0.00 0.00 57 1013.7
20260505033006 78 345 0.0 3.0 0.00 0.00 0.00 57 1013.6
20260505032903 78 351 1.0 3.0 0.00 0.00 0.00 57 1013.7
20260505032803 78 71 1.0 3.0 0.00 0.00 0.00 57 1013.7
20260505032702 78 26 1.0 3.0 0.00 0.00 0.00 57 1013.6
20260505032604 78 27 0.0 3.0 0.00 0.00 0.00 57 1013.7
20260505032506 77 29 0.0 2.0 0.00 0.00 0.00 57 1013.7
20260505032404 77 51 0.0 2.0 0.00 0.00 0.00 57 1013.6
20260505032304 77 82 0.0 2.0 0.00 0.00 0.00 56 1013.7
20260505032204 77 42 0.0 2.0 0.00 0.00 0.00 56 1013.7
20260505032104 77 46 0.0 2.0 0.00 0.00 0.00 57 1013.7
20260505031902 77 51 1.0 2.0 0.00 0.00 0.00 57 1013.7
20260505031805 76 26 0.0 2.0 0.00 0.00 0.00 57 1013.7
20260505031703 76 28 1.0 2.0 0.00 0.00 0.00 59 1013.7
20260505031603 76 360 1.0 2.0 0.00 0.00 0.00 59 1013.7
20260505031505 76 341 0.0 2.0 0.00 0.00 0.00 61 1013.7
20260505031403 76 42 0.0 2.0 0.00 0.00 0.00 61 1013.7
20260505031303 76 42 0.0 2.0 0.00 0.00 0.00 62 1013.7
20260505031007 75 319 0.0 2.0 0.00 0.00 0.00 62 1013.6
20260505030904 75 319 0.0 2.0 0.00 0.00 0.00 63 1013.7
20260505030803 75 319 0.0 2.0 0.00 0.00 0.00 63 1013.6
20260505030605 75 325 0.0 2.0 0.00 0.00 0.00 64 1013.7
20260505030505 75 348 0.0 1.0 0.00 0.00 0.00 64 1013.6
20260505030304 75 304 0.0 1.0 0.00 0.00 0.00 64 1013.7
20260505030203 75 329 0.0 2.0 0.00 0.00 0.00 64 1013.6
20260505030104 75 329 0.0 2.0 0.00 0.00 0.00 65 1013.6
20260505030008 74 317 0.0 2.0 0.00 0.00 0.00 65 1013.6
20260505025803 74 333 0.0 3.0 0.00 0.00 0.00 65 1013.6
20260505025703 74 333 0.0 3.0 0.00 0.00 0.00 66 1013.5
20260505025504 74 309 0.0 3.0 0.00 0.00 0.00 66 1013.6
20260505025405 74 327 0.0 3.0 0.00 0.00 0.00 66 1013.6
20260505025203 74 77 0.0 3.0 0.00 0.00 0.00 66 1013.5
20260505025103 74 78 1.0 3.0 0.00 0.00 0.00 67 1013.6
20260505025007 73 72 2.0 3.0 0.00 0.00 0.00 67 1013.5
20260505024703 73 63 0.0 2.0 0.00 0.00 0.00 70 1013.5
20260505024404 73 31 0.0 3.0 0.00 0.00 0.00 70 1013.4
20260505024304 73 345 0.0 3.0 0.00 0.00 0.00 70 1013.4
20260505024204 73 5 0.0 3.0 0.00 0.00 0.00 70 1013.4
20260505024102 72 21 0.0 3.0 0.00 0.00 0.00 71 1013.4
20260505024006 72 349 1.0 3.0 0.00 0.00 0.00 71 1013.3
20260505023802 72 5 1.0 3.0 0.00 0.00 0.00 71 1013.3
20260505023603 72 350 1.0 3.0 0.00 0.00 0.00 72 1013.2
20260505023505 72 30 1.0 3.0 0.00 0.00 0.00 72 1013.2
20260505023402 72 58 1.0 3.0 0.00 0.00 0.00 72 1013.3
20260505023259 72 360 0.0 3.0 0.00 0.00 0.00 72 1013.2
20260505023203 72 344 1.0 3.0 0.00 0.00 0.00 72 1013.2
20260505023103 71 92 1.0 3.0 0.00 0.00 0.00 73 1013.2
20260505023006 71 45 1.0 3.0 0.00 0.00 0.00 73 1013.2
20260505022903 71 36 1.0 3.0 0.00 0.00 0.00 73 1013.2
20260505022804 71 37 0.0 3.0 0.00 0.00 0.00 74 1013.2
20260505022703 71 55 1.0 5.0 0.00 0.00 0.00 74 1013.2
20260505022603 71 59 2.0 5.0 0.00 0.00 0.00 73 1013.2
20260505022505 71 40 1.0 5.0 0.00 0.00 0.00 73 1013.2
20260505022404 71 34 1.0 5.0 0.00 0.00 0.00 74 1013.2
20260505022304 71 89 1.0 5.0 0.00 0.00 0.00 74 1013.2
20260505022205 70 56 1.0 5.0 0.00 0.00 0.00 74 1013.2
20260505022103 70 39 2.0 5.0 0.00 0.00 0.00 74 1013.2
20260505021904 70 61 3.0 5.0 0.00 0.00 0.00 74 1013.1
20260505021704 70 32 2.0 4.0 0.00 0.00 0.00 75 1013.1
20260505021604 70 31 2.0 4.0 0.00 0.00 0.00 75 1013.1
20260505021505 70 42 1.0 4.0 0.00 0.00 0.00 76 1013.1
20260505021402 70 29 1.0 4.0 0.00 0.00 0.00 76 1013.1
20260505021104 69 56 2.0 5.0 0.00 0.00 0.00 76 1013.0
20260505021010 69 26 2.0 5.0 0.00 0.00 0.00 76 1013.1
20260505020904 69 30 2.0 5.0 0.00 0.00 0.00 76 1013.1
20260505020703 69 60 2.0 5.0 0.00 0.00 0.00 76 1013.0
20260505020604 69 55 4.0 5.0 0.00 0.00 0.00 76 1013.0
20260505020505 69 50 4.0 5.0 0.00 0.00 0.00 77 1013.1
20260505020403 69 49 4.0 5.0 0.00 0.00 0.00 77 1013.1
20260505020203 69 46 4.0 5.0 0.00 0.00 0.00 77 1013.0
20260505020104 69 60 4.0 5.0 0.00 0.00 0.00 77 1013.1
20260505020009 68 38 4.0 5.0 0.00 0.00 0.00 78 1013.0
20260505015802 68 48 3.0 5.0 0.00 0.00 0.00 78 1013.0
20260505015702 68 49 3.0 5.0 0.00 0.00 0.00 78 1013.0
20260505015602 68 46 3.0 5.0 0.00 0.00 0.00 78 1013.0
20260505015505 68 63 3.0 5.0 0.00 0.00 0.00 79 1013.0
20260505015402 68 53 3.0 5.0 0.00 0.00 0.00 79 1013.0
20260505015303 68 59 3.0 5.0 0.00 0.00 0.00 79 1013.0
20260505015203 68 43 3.0 8.0 0.00 0.00 0.00 79 1013.0
20260505015012 68 63 2.0 8.0 0.00 0.00 0.00 79 1013.0
20260505014902 67 53 2.0 8.0 0.00 0.00 0.00 79 1013.0
20260505014802 67 45 2.0 8.0 0.00 0.00 0.00 79 1012.9
20260505014702 67 51 1.0 8.0 0.00 0.00 0.00 79 1012.9
20260505014602 67 17 2.0 8.0 0.00 0.00 0.00 79 1013.0
20260505014503 67 62 4.0 8.0 0.00 0.00 0.00 79 1012.8
20260505014359 67 43 5.0 8.0 0.00 0.00 0.00 80 1012.9
20260505014303 67 57 4.0 6.0 0.00 0.00 0.00 80 1012.9
20260505014203 67 24 3.0 6.0 0.00 0.00 0.00 80 1012.8
20260505014103 67 43 3.0 6.0 0.00 0.00 0.00 80 1012.8
20260505014007 67 27 3.0 6.0 0.00 0.00 0.00 80 1012.8
20260505013902 67 49 4.0 6.0 0.00 0.00 0.00 80 1012.8
20260505013801 67 42 4.0 6.0 0.00 0.00 0.00 80 1012.8
20260505013702 67 5 4.0 6.0 0.00 0.00 0.00 80 1012.8
20260505013603 67 42 4.0 6.0 0.00 0.00 0.00 80 1012.8
20260505013504 67 50 3.0 6.0 0.00 0.00 0.00 80 1012.7
20260505013402 67 31 3.0 6.0 0.00 0.00 0.00 80 1012.8
20260505013303 67 13 3.0 6.0 0.00 0.00 0.00 80 1012.7
20260505013202 67 51 3.0 6.0 0.00 0.00 0.00 80 1012.7
20260505013102 66 58 3.0 6.0 0.00 0.00 0.00 80 1012.7
20260505013009 66 360 3.0 6.0 0.00 0.00 0.00 80 1012.7
20260505012902 66 16 3.0 6.0 0.00 0.00 0.00 80 1012.7
20260505012801 66 44 3.0 6.0 0.00 0.00 0.00 80 1012.7
20260505012702 66 5 3.0 6.0 0.00 0.00 0.00 80 1012.6
20260505012602 66 41 4.0 6.0 0.00 0.00 0.00 80 1012.6
20260505012402 66 52 4.0 6.0 0.00 0.00 0.00 80 1012.6
20260505012158 66 40 3.0 6.0 0.00 0.00 0.00 80 1012.6
20260505012103 66 41 4.0 6.0 0.00 0.00 0.00 81 1012.5
20260505012008 66 61 4.0 6.0 0.00 0.00 0.00 80 1012.5
20260505011903 66 32 4.0 6.0 0.00 0.00 0.00 81 1012.5
20260505011604 66 74 3.0 5.0 0.00 0.00 0.00 81 1012.5
20260505011504 66 32 2.0 5.0 0.00 0.00 0.00 81 1012.5
20260505011401 66 59 2.0 5.0 0.00 0.00 0.00 81 1012.5
20260505011304 66 44 3.0 5.0 0.00 0.00 0.00 81 1012.5
20260505011202 66 40 2.0 5.0 0.00 0.00 0.00 81 1012.4
20260505011102 66 37 1.0 4.0 0.00 0.00 0.00 81 1012.4
20260505011008 66 63 2.0 4.0 0.00 0.00 0.00 81 1012.4
20260505010902 66 360 3.0 4.0 0.00 0.00 0.00 81 1012.4
20260505010803 66 46 3.0 4.0 0.00 0.00 0.00 81 1012.4
20260505010603 66 48 2.0 4.0 0.00 0.00 0.00 81 1012.4
20260505010505 66 42 2.0 4.0 0.00 0.00 0.00 81 1012.3
20260505010402 66 34 2.0 4.0 0.00 0.00 0.00 81 1012.4
20260505010202 66 73 2.0 4.0 0.00 0.00 0.00 81 1012.3
20260505010009 66 63 0.0 3.0 0.00 0.00 0.00 82 1012.2
20260505005902 66 38 0.0 3.0 0.00 0.00 0.00 82 1012.2
20260505005801 66 23 0.0 3.0 0.00 0.00 0.00 82 1012.2
20260505005504 66 5 2.0 4.0 0.00 0.00 0.00 81 1012.1
20260505005403 66 25 2.0 4.0 0.00 0.00 0.00 82 1012.2
20260505005303 66 37 2.0 4.0 0.00 0.00 0.00 82 1012.1
20260505005203 66 51 1.0 4.0 0.00 0.00 0.00 82 1012.0
20260505005104 65 32 1.0 4.0 0.00 0.00 0.00 82 1012.0
20260505005007 66 72 2.0 4.0 0.00 0.00 0.00 82 1012.0
20260505004802 66 46 2.0 4.0 0.00 0.00 0.00 82 1011.9
20260505004703 65 88 2.0 5.0 0.00 0.00 0.00 82 1011.9
20260505004601 65 46 2.0 5.0 0.00 0.00 0.00 82 1011.9
20260505004504 65 48 2.0 5.0 0.00 0.00 0.00 82 1011.9
20260505004401 65 9 2.0 5.0 0.00 0.00 0.00 82 1011.9
20260505004303 65 50 2.0 5.0 0.00 0.00 0.00 82 1011.9
20260505004103 65 56 2.0 5.0 0.00 0.00 0.00 82 1011.9
20260505004013 65 78 2.0 5.0 0.00 0.00 0.00 82 1011.9
20260505003901 65 43 2.0 5.0 0.00 0.00 0.00 82 1011.9
20260505003803 65 67 2.0 4.0 0.00 0.00 0.00 82 1011.9
20260505003601 65 46 2.0 4.0 0.00 0.00 0.00 82 1011.9
20260505003503 65 34 1.0 4.0 0.00 0.00 0.00 82 1011.8
20260505003401 65 57 2.0 4.0 0.00 0.00 0.00 82 1011.8
20260505003300 65 56 2.0 4.0 0.00 0.00 0.00 82 1011.8
20260505003203 65 50 2.0 4.0 0.00 0.00 0.00 82 1011.9
20260505003100 65 50 1.0 4.0 0.00 0.00 0.00 82 1011.8
20260505003007 65 30 2.0 4.0 0.00 0.00 0.00 82 1011.8
20260505002902 65 94 2.0 4.0 0.00 0.00 0.00 82 1011.8
20260505002801 65 64 1.0 4.0 0.00 0.00 0.00 82 1011.8
20260505002702 65 120 2.0 4.0 0.00 0.00 0.00 82 1011.8
20260505002602 65 109 1.0 4.0 0.00 0.00 0.00 82 1011.8
20260505002504 65 35 0.0 4.0 0.00 0.00 0.00 82 1011.8
20260505002402 65 157 1.0 4.0 0.00 0.00 0.00 82 1011.8
20260505002202 65 63 1.0 4.0 0.00 0.00 0.00 82 1011.7
20260505002100 65 82 2.0 4.0 0.00 0.00 0.00 82 1011.7
20260505001902 65 44 2.0 4.0 0.00 0.00 0.00 81 1011.7
20260505001801 65 55 2.0 4.0 0.00 0.00 0.00 81 1011.6
20260505001700 65 22 2.0 4.0 0.00 0.00 0.00 81 1011.7
20260505001504 65 53 1.0 4.0 0.00 0.00 0.00 81 1011.6
20260505001302 65 333 1.0 4.0 0.00 0.00 0.00 81 1011.6
20260505001200 65 334 1.0 4.0 0.00 0.00 0.00 81 1011.6
20260505001101 65 355 1.0 4.0 0.00 0.00 0.00 81 1011.6
20260505001012 65 13 2.0 4.0 0.00 0.00 0.00 81 1011.7
20260505000902 65 38 3.0 5.0 0.00 0.00 0.00 81 1011.6
20260505000801 65 33 2.0 5.0 0.00 0.00 0.00 81 1011.6
20260505000701 65 23 2.0 5.0 0.00 0.00 0.00 81 1011.5
20260505000601 65 22 2.0 5.0 0.00 0.00 0.00 81 1011.6
20260505000503 66 13 2.0 5.0 0.00 0.00 0.00 81 1011.5
20260505000403 65 44 2.0 5.0 0.00 0.00 0.00 81 1011.5
20260505000302 66 40 2.0 5.0 0.00 0.00 0.00 81 1011.6
20260505000200 66 5 3.0 5.0 0.00 0.00 0.00 80 1011.6
20260505000010 66 18 3.0 4.0 0.00 0.00 0.00 80 1011.5
20260504235903 66 29 2.0 4.0 0.00 0.00 0.00 80 1011.5
20260504235802 66 5 2.0 3.0 0.00 0.00 0.00 80 1011.5
20260504235700 66 5 1.0 3.0 0.00 0.00 0.00 80 1011.5
20260504235602 66 336 0.0 3.0 0.00 0.00 0.00 80 1011.6
20260504235503 66 5 1.0 3.0 0.00 0.00 0.00 80 1011.5
20260504235401 66 344 2.0 3.0 0.00 0.00 0.00 80 1011.4
20260504235300 66 355 1.0 3.0 0.00 0.00 0.00 80 1011.4
20260504235201 66 310 1.0 3.0 0.00 0.00 0.00 80 1011.4
20260504235100 66 360 1.0 3.0 0.00 0.00 0.00 80 1011.5
20260504235009 66 45 1.0 3.0 0.00 0.00 0.00 80 1011.4
20260504234902 66 51 1.0 3.0 0.00 0.00 0.00 80 1011.4
20260504234801 66 9 1.0 3.0 0.00 0.00 0.00 80 1011.4
20260504234702 66 26 1.0 4.0 0.00 0.00 0.00 80 1011.5
20260504234603 66 34 1.0 4.0 0.00 0.00 0.00 80 1011.4
20260504234504 66 25 1.0 4.0 0.00 0.00 0.00 80 1011.4
20260504234404 66 17 0.0 4.0 0.00 0.00 0.00 80 1011.4
20260504234102 66 349 2.0 4.0 0.00 0.00 0.00 79 1011.4
20260504233902 66 39 1.0 4.0 0.00 0.00 0.00 79 1011.3
20260504233803 66 46 2.0 4.0 0.00 0.00 0.00 79 1011.1
20260504233700 66 349 2.0 4.0 0.00 0.00 0.00 79 1011.2
20260504233602 66 355 1.0 3.0 0.00 0.00 0.00 79 1011.2
20260504233503 66 342 1.0 3.0 0.00 0.00 0.00 79 1011.2
20260504233202 66 5 2.0 3.0 0.00 0.00 0.00 78 1011.1
20260504233100 67 24 1.0 3.0 0.00 0.00 0.00 78 1011.1
20260504233005 67 24 0.0 2.0 0.00 0.00 0.00 78 1011.1
20260504232902 67 27 0.0 2.0 0.00 0.00 0.00 78 1011.0
20260504232702 67 9 0.0 2.0 0.00 0.00 0.00 77 1011.0
20260504232602 67 9 0.0 2.0 0.00 0.00 0.00 77 1011.0
20260504232358 67 346 0.0 2.0 0.00 0.00 0.00 77 1010.9
20260504232201 67 334 0.0 2.0 0.00 0.00 0.00 77 1010.8
20260504232104 67 317 0.0 2.0 0.00 0.00 0.00 77 1010.8
20260504232005 67 340 0.0 0.0 0.00 0.00 0.00 77 1010.8
20260504231859 67 340 0.0 0.0 0.00 0.00 0.00 77 1010.7
20260504231700 67 340 0.0 1.0 0.00 0.00 0.00 77 1010.7
20260504231503 67 340 0.0 1.0 0.00 0.00 0.00 77 1010.6
20260504231401 67 340 0.0 1.0 0.00 0.00 0.00 77 1010.6
20260504231202 68 340 0.0 2.0 0.00 0.00 0.00 77 1010.5
20260504231108 68 340 0.0 2.0 0.00 0.00 0.00 77 1010.5
20260504231009 68 340 0.0 3.0 0.00 0.00 0.00 76 1010.5
20260504230803 68 325 0.0 3.0 0.00 0.00 0.00 76 1010.5
20260504230708 68 301 0.0 3.0 0.00 0.00 0.00 76 1010.5
20260504230604 68 301 1.0 3.0 0.00 0.00 0.00 76 1010.5
20260504230508 68 301 1.0 3.0 0.00 0.00 0.00 76 1010.4
20260504230405 68 301 1.0 3.0 0.00 0.00 0.00 76 1010.4
20260504230301 68 279 2.0 3.0 0.00 0.00 0.00 76 1010.4
20260504230200 68 287 1.0 3.0 0.00 0.00 0.00 76 1010.4
20260504230108 68 286 1.0 2.0 0.00 0.00 0.00 76 1010.5
20260504230007 68 286 0.0 1.0 0.00 0.00 0.00 76 1010.4
20260504225859 68 286 0.0 1.0 0.00 0.00 0.00 76 1010.4
20260504225803 68 286 0.0 1.0 0.00 0.00 0.00 76 1010.5
20260504225700 68 222 0.0 1.0 0.00 0.00 0.00 76 1010.3
20260504225605 68 167 0.0 1.0 0.00 0.00 0.00 76 1010.4
20260504225514 68 167 0.0 1.0 0.00 0.00 0.00 76 1010.3
20260504225403 68 167 0.0 1.0 0.00 0.00 0.00 76 1010.3
20260504225304 68 167 0.0 1.0 0.00 0.00 0.00 76 1010.2
20260504225203 68 146 0.0 0.0 0.00 0.00 0.00 76 1010.4
20260504225101 68 146 0.0 1.0 0.00 0.00 0.00 76 1010.4
20260504225014 68 146 0.0 2.0 0.00 0.00 0.00 76 1010.4
20260504224810 68 146 0.0 3.0 0.00 0.00 0.00 76 1010.4
20260504224603 68 146 0.0 3.0 0.00 0.00 0.00 76 1010.2
20260504224516 68 146 0.0 5.0 0.00 0.00 0.00 76 1010.4
20260504224403 68 146 1.0 5.0 0.00 0.00 0.00 76 1010.3
20260504224303 68 142 1.0 7.0 0.00 0.00 0.00 76 1010.4
20260504224200 68 111 2.0 7.0 0.00 0.00 0.00 76 1010.3
20260504224105 68 142 1.0 7.0 0.00 0.00 0.00 76 1010.4
20260504224022 68 98 1.0 7.0 0.00 0.00 0.00 76 1010.3
20260504223902 68 129 1.0 7.0 0.00 0.00 0.00 76 1010.3
20260504223559 68 102 3.0 7.0 0.00 0.00 0.00 75 1010.3
20260504223400 68 103 3.0 7.0 0.00 0.00 0.00 75 1010.3
20260504223303 68 65 3.0 7.0 0.00 0.00 0.00 75 1010.3
20260504223204 68 90 3.0 7.0 0.00 0.00 0.00 75 1010.3
20260504223004 69 111 3.0 7.0 0.00 0.00 0.00 75 1010.2
20260504222804 69 86 1.0 6.0 0.00 0.00 0.00 74 1010.2
20260504222703 69 85 1.0 6.0 0.00 0.00 0.00 74 1010.2
20260504222601 69 53 2.0 6.0 0.00 0.00 0.00 74 1010.2
20260504222512 69 97 3.0 6.0 0.00 0.00 0.00 74 1010.3
20260504222409 69 78 3.0 6.0 0.00 0.00 0.00 74 1010.2
20260504222304 69 84 3.0 6.0 0.00 0.00 0.00 74 1010.2
20260504222202 69 98 2.0 4.0 0.00 0.00 0.00 74 1010.2
20260504221903 69 101 2.0 4.0 0.00 0.00 0.00 74 1010.1
20260504221801 69 144 2.0 3.0 0.00 0.00 0.00 75 1010.2
20260504221603 69 74 1.0 3.0 0.00 0.00 0.00 75 1010.2
20260504221510 69 55 1.0 3.0 0.00 0.00 0.00 75 1010.2
20260504221403 69 80 1.0 3.0 0.00 0.00 0.00 75 1010.1
20260504221304 69 97 2.0 3.0 0.00 0.00 0.00 75 1010.1
20260504221205 69 98 2.0 3.0 0.00 0.00 0.00 75 1010.2
20260504220904 69 103 0.0 3.0 0.00 0.00 0.00 75 1010.2
20260504220807 69 135 0.0 3.0 0.00 0.00 0.00 75 1010.2
20260504220559 69 155 1.0 3.0 0.00 0.00 0.00 75 1010.2
20260504220508 69 166 1.0 3.0 0.00 0.00 0.00 74 1010.2
20260504220405 69 179 1.0 2.0 0.00 0.00 0.00 74 1010.3
20260504220301 69 179 0.0 0.0 0.00 0.00 0.00 74 1010.2
20260504220201 69 179 0.0 0.0 0.00 0.00 0.00 74 1010.2
20260504220011 69 179 0.0 0.0 0.00 0.00 0.00 74 1010.1
20260504215612 69 179 0.0 0.0 0.00 0.00 0.00 74 1010.1
20260504215506 69 179 0.0 1.0 0.00 0.00 0.00 74 1010.2
20260504215259 69 179 0.0 1.0 0.00 0.00 0.00 74 1010.1
20260504215202 69 179 0.0 1.0 0.00 0.00 0.00 74 1010.1
20260504215105 69 179 0.0 1.0 0.00 0.00 0.00 74 1010.1
20260504215018 69 179 0.0 1.0 0.00 0.00 0.00 74 1010.2
20260504214802 69 236 0.0 1.0 0.00 0.00 0.00 73 1010.1
20260504214709 69 278 0.0 1.0 0.00 0.00 0.00 73 1010.2
20260504214612 69 278 0.0 0.0 0.00 0.00 0.00 73 1010.2
20260504214506 69 278 0.0 0.0 0.00 0.00 0.00 73 1010.1
20260504214401 69 278 0.0 0.0 0.00 0.00 0.00 73 1010.1
20260504214258 69 277 0.0 1.0 0.00 0.00 0.00 73 1010.1
20260504214208 70 278 0.0 1.0 0.00 0.00 0.00 73 1010.0
20260504214007 70 278 0.0 3.0 0.00 0.00 0.00 72 1010.0
20260504213904 70 278 0.0 3.0 0.00 0.00 0.00 72 1010.0
20260504213803 70 278 0.0 3.0 0.00 0.00 0.00 72 1010.0
20260504213706 70 251 0.0 3.0 0.00 0.00 0.00 72 1010.0
20260504213609 70 252 0.0 3.0 0.00 0.00 0.00 72 1010.1
20260504213518 70 251 0.0 3.0 0.00 0.00 0.00 72 1010.1
20260504213402 70 217 0.0 3.0 0.00 0.00 0.00 72 1010.0
20260504213304 70 217 0.0 3.0 0.00 0.00 0.00 72 1010.0
20260504213204 70 217 1.0 3.0 0.00 0.00 0.00 72 1010.1
20260504213007 70 222 2.0 3.0 0.00 0.00 0.00 71 1010.1
20260504212905 70 180 1.0 3.0 0.00 0.00 0.00 71 1010.2
20260504212803 70 194 0.0 0.0 0.00 0.00 0.00 71 1010.2
20260504212700 70 190 0.0 0.0 0.00 0.00 0.00 71 1010.2
20260504212606 70 182 0.0 0.0 0.00 0.00 0.00 70 1010.1
20260504212504 70 167 0.0 0.0 0.00 0.00 0.00 70 1010.2
20260504212359 70 162 0.0 0.0 0.00 0.00 0.00 70 1010.2
20260504212308 70 163 0.0 0.0 0.00 0.00 0.00 70 1010.2
20260504212201 70 178 0.0 0.0 0.00 0.00 0.00 70 1010.1
20260504212104 70 190 0.0 0.0 0.00 0.00 0.00 70 1010.2
20260504212013 70 175 0.0 0.0 0.00 0.00 0.00 70 1010.1
20260504211904 70 175 0.0 0.0 0.00 0.00 0.00 70 1010.1
20260504211758 70 175 0.0 0.0 0.00 0.00 0.00 70 1010.1
20260504211659 70 175 0.0 0.0 0.00 0.00 0.00 70 1010.1
20260504211601 70 175 0.0 0.0 0.00 0.00 0.00 70 1010.1
20260504211300 70 194 0.0 0.0 0.00 0.00 0.00 69 1010.1
20260504211200 70 188 0.0 0.0 0.00 0.00 0.00 69 1010.1
20260504211102 70 188 0.0 0.0 0.00 0.00 0.00 69 1010.0
20260504210905 70 169 0.0 0.0 0.00 0.00 0.00 69 1010.1
20260504210800 70 169 0.0 0.0 0.00 0.00 0.00 69 1010.1
20260504210700 70 169 0.0 0.0 0.00 0.00 0.00 69 1010.0
20260504210602 70 169 0.0 0.0 0.00 0.00 0.00 69 1010.0
20260504210305 70 170 0.0 0.0 0.00 0.00 0.00 69 1010.1
20260504210201 70 171 0.0 2.0 0.00 0.00 0.00 69 1010.1
20260504210014 70 168 0.0 2.0 0.00 0.00 0.00 69 1010.1
20260504205759 70 168 0.0 3.0 0.00 0.00 0.00 69 1010.1
20260504205704 70 168 0.0 3.0 0.00 0.00 0.00 69 1010.1
20260504205601 70 168 0.0 3.0 0.00 0.00 0.00 69 1010.0
20260504205508 70 168 0.0 3.0 0.00 0.00 0.00 69 1010.1
20260504205400 70 163 1.0 3.0 0.00 0.00 0.00 69 1010.0
20260504205304 70 167 1.0 3.0 0.00 0.00 0.00 69 1010.0
20260504205201 70 163 1.0 3.0 0.00 0.00 0.00 69 1010.0
20260504204904 70 157 0.0 2.0 0.00 0.00 0.00 69 1009.9
20260504204805 70 136 0.0 2.0 0.00 0.00 0.00 69 1009.9
20260504204704 70 117 1.0 2.0 0.00 0.00 0.00 69 1009.9
20260504204600 70 115 1.0 2.0 0.00 0.00 0.00 69 1009.9
20260504204503 70 101 0.0 2.0 0.00 0.00 0.00 69 1009.9
20260504204401 70 100 0.0 2.0 0.00 0.00 0.00 69 1010.0
20260504204304 70 107 0.0 3.0 0.00 0.00 0.00 69 1009.9
20260504204200 70 149 0.0 4.0 0.00 0.00 0.00 69 1010.0
20260504204103 70 148 0.0 4.0 0.00 0.00 0.00 69 1010.0
20260504204005 70 60 0.0 4.0 0.00 0.00 0.00 69 1010.0
20260504203900 70 60 0.0 5.0 0.00 0.00 0.00 69 1010.0
20260504203800 70 61 0.0 5.0 0.00 0.00 0.00 69 1010.0
20260504203702 70 78 1.0 5.0 0.00 0.00 0.00 69 1010.0
20260504203601 70 59 2.0 5.0 0.00 0.00 0.00 69 1010.0
20260504203503 70 75 2.0 5.0 0.00 0.00 0.00 69 1010.0
20260504203400 70 70 2.0 5.0 0.00 0.00 0.00 69 1010.0
20260504203301 70 49 2.0 5.0 0.00 0.00 0.00 69 1009.9
20260504203159 70 74 2.0 5.0 0.00 0.00 0.00 69 1009.9
20260504203104 70 335 2.0 5.0 0.00 0.00 0.00 69 1010.0
20260504203006 70 67 1.0 5.0 0.00 0.00 0.00 69 1009.9
20260504202904 70 73 1.0 5.0 0.00 0.00 0.00 69 1009.9
20260504202802 70 69 2.0 5.0 0.00 0.00 0.00 69 1009.8
20260504202701 70 82 3.0 5.0 0.00 0.00 0.00 69 1009.8
20260504202600 70 77 3.0 5.0 0.00 0.00 0.00 69 1009.8
20260504202402 70 63 1.0 4.0 0.00 0.00 0.00 69 1009.8
20260504202301 70 70 1.0 3.0 0.00 0.00 0.00 69 1009.8
20260504202201 70 67 1.0 3.0 0.00 0.00 0.00 69 1009.8
20260504202101 70 65 1.0 3.0 0.00 0.00 0.00 69 1009.8
20260504202007 70 63 0.0 3.0 0.00 0.00 0.00 69 1009.8
20260504201900 70 88 0.0 3.0 0.00 0.00 0.00 69 1009.8
20260504201801 70 59 1.0 3.0 0.00 0.00 0.00 68 1009.8
20260504201702 71 91 1.0 3.0 0.00 0.00 0.00 69 1009.8
20260504201600 71 53 0.0 3.0 0.00 0.00 0.00 69 1009.8
20260504201504 71 13 1.0 3.0 0.00 0.00 0.00 69 1009.8
20260504201301 71 43 0.0 1.0 0.00 0.00 0.00 69 1009.7
20260504201202 71 338 0.0 0.0 0.00 0.00 0.00 69 1009.7
20260504201101 71 338 0.0 0.0 0.00 0.00 0.00 69 1009.7